Hourly Data

Hourly Data Report for July 26, 2014

All times are specified in Local Standard Time (LST). Add 1 hour to adjust for Daylight Saving Time where and when it is observed.

Metadata including Station Name, Province, Latitude, Longitude, Elevation, Climate ID, WMO ID, TC ID
PUVIRNITUQ A
QUEBEC
Latitude: 60°03'08.000" N Longitude: 77°17'15.000" W Elevation: 25.30 m
Climate ID: 7106223 WMO ID: TC ID: YPX
Hourly Data Report for July 26, 2014
Temp Definition
°C

Dew Point Temp Definition
°C

Rel Hum Definition
%

Wind Dir Definition
10's deg
Wind Spd Definition
km/h

Visibility Definition
km

Stn Press Definition
kPa

Hmdx Definition

Wind Chill Definition

Weather Definition

00:00 Legend Double Dagger 12.5 9.2 80 35 28 16.1 100.20 LegendNANA
01:00 Legend Double Dagger 12.1 9.2 82 36 26 16.1 100.20 LegendNANA
02:00 Legend Double Dagger 11.0 8.6 85 36 26 16.1 100.22 LegendNANA
03:00 Legend Double Dagger 10.4 8.0 85 1 22 16.1 100.22 LegendNANA
04:00 Legend Double Dagger 9.5 7.3 86 1 24 16.1 100.23 LegendNANA
05:00 Legend Double Dagger 10.0 7.2 83 1 22 16.1 100.24 LegendNANA
06:00 Legend Double Dagger 10.3 6.8 79 2 32 16.1 100.26 LegendNANA
07:00 Legend Double Dagger 11.2 7.2 76 1 32 16.1 100.31 LegendNANA
08:00 Legend Double Dagger 11.6 6.7 72 2 30 16.1 100.31 LegendNANA
09:00 Legend Double Dagger 12.4 5.7 63 3 35 16.1 100.33 LegendNANA
10:00 Legend Double Dagger 12.2 4.9 61 4 35 16.1 100.33 LegendNANA
11:00 Legend Double Dagger 12.9 5.1 59 5 37 16.1 100.35 LegendNANA
12:00 Legend Double Dagger 13.6 5.1 56 4 35 16.1 100.36 LegendNANA
13:00 Legend Double Dagger 13.5 4.9 56 5 41 16.1 100.40 LegendNANA
14:00 Legend Double Dagger 13.4 4.8 56 5 39 16.1 100.42 LegendNANA
15:00 Legend Double Dagger 12.9 5.4 60 7 39 16.1 100.46 LegendNANA
16:00 Legend Double Dagger 13.3 5.0 57 6 30 16.1 100.51 LegendNANA
17:00 Legend Double Dagger 13.5 5.2 57 7 28 16.1 100.56 LegendNANA
18:00 Legend Double Dagger 13.5 5.2 57 6 24 16.1 100.59 LegendNANA
19:00 Legend Double Dagger 13.1 5.1 58 5 21 16.1 100.64 LegendNANA
20:00 Legend Double Dagger 12.4 6.3 66 3 17 16.1 100.71 LegendNANA
21:00 Legend Double Dagger 12.0 6.2 68 6 15 16.1 100.75 LegendNANA
22:00 Legend Double Dagger 11.0 6.2 72 5 15 16.1 100.77 LegendNANA
23:00 Legend Double Dagger 9.5 6.5 82 4 15 16.1 100.78 LegendNANA

Notes on Data Quality.

Legend
  • M = Missing
  • E = Estimated
  • NA = Not Available
  • ‡ = Partner data that is not subject to review by the National Climate Archives